Torna al catalogo

STARLINK-3162

AttivoComunicazioniVLEO
NORAD 49411·PAYLOAD·🇺🇸 United States

Lanciato Nov 13, 2021 da Cape Canaveral Space Force Station

Loading…

Prossimi Passaggi (prossime 24 ore)

TLE

AggiornatoSource: CelesTrak SupGP

Epoca: Sep 14, 2026, 21:14 UTC

1 49411C 21104D   26257.88520833  .00030110  00000+0  88956-3 0  2576
2 49411  53.1583  78.3189 0001362  82.3602  32.5933 15.34376495    18

Traccia STARLINK-3162 in tempo reale con AllMySat

Download on the App Store